TimeEDT,TemperatureF,Dew PointF,Humidity,Sea Level PressureIn,VisibilityMPH,Wind Direction,Wind SpeedMPH,Gust SpeedMPH,PrecipitationIn,Events,Conditions,WindDirDegrees,DateUTC
12:55 AM,64.9,62.1,90,29.86,4.0,Calm,Calm,-,N/A,,Clear,0,2012-09-05 04:55:00
1:04 AM,64.0,61.0,90,29.87,1.8,Calm,Calm,-,N/A,,Clear,0,2012-09-05 05:04:00
1:12 AM,64.0,62.1,93,29.86,3.0,Calm,Calm,-,N/A,,Clear,0,2012-09-05 05:12:00
1:35 AM,64.0,61.0,90,29.86,2.5,Calm,Calm,-,N/A,,Clear,0,2012-09-05 05:35:00
1:47 AM,63.0,60.1,90,29.86,2.0,Calm,Calm,-,N/A,,Scattered Clouds,0,2012-09-05 05:47:00
1:50 AM,62.6,60.8,94,29.86,1.0,Calm,Calm,-,N/A,,Mostly Cloudy,0,2012-09-05 05:50:00
1:55 AM,62.1,60.1,93,29.85,0.2,Calm,Calm,-,N/A,Fog,Fog,0,2012-09-05 05:55:00
2:52 AM,64.4,62.6,94,29.84,1.5,Calm,Calm,-,N/A,,Overcast,0,2012-09-05 06:52:00
2:55 AM,64.0,62.1,93,29.83,1.2,East,3.5,-,N/A,,Overcast,90,2012-09-05 06:55:00
3:05 AM,64.0,62.1,93,29.84,0.5,Calm,Calm,-,N/A,Fog,Fog,0,2012-09-05 07:05:00
3:55 AM,63.0,62.1,97,29.81,0.2,ESE,4.6,-,N/A,Fog,Fog,110,2012-09-05 07:55:00
4:55 AM,63.0,61.0,93,29.80,0.2,NE,4.6,-,N/A,Fog,Fog,50,2012-09-05 08:55:00
5:55 AM,64.0,63.0,96,29.79,0.2,ESE,3.5,-,N/A,Fog,Fog,120,2012-09-05 09:55:00
6:55 AM,64.0,63.0,96,29.80,0.2,ESE,4.6,-,N/A,Fog,Fog,110,2012-09-05 10:55:00
7:55 AM,64.0,62.1,93,29.79,0.5,Variable,4.6,-,N/A,Fog,Fog,0,2012-09-05 11:55:00
8:40 AM,64.9,63.0,93,29.81,1.2,East,3.5,-,N/A,,Overcast,100,2012-09-05 12:40:00
8:55 AM,64.9,63.0,93,29.80,0.8,East,3.5,-,N/A,,Overcast,90,2012-09-05 12:55:00
9:02 AM,64.9,63.0,93,29.80,1.2,ENE,5.8,-,N/A,,Overcast,70,2012-09-05 13:02:00
9:18 AM,66.0,64.0,93,29.80,2.0,Variable,4.6,-,N/A,,Overcast,0,2012-09-05 13:18:00
9:37 AM,66.0,64.0,93,29.79,3.0,East,4.6,-,N/A,,Overcast,100,2012-09-05 13:37:00
9:55 AM,66.0,64.9,96,29.78,3.0,ESE,5.8,-,N/A,,Overcast,120,2012-09-05 13:55:00
10:55 AM,69.1,64.9,87,29.78,5.0,East,4.6,-,N/A,,Overcast,100,2012-09-05 14:55:00
11:27 AM,70.0,66.0,87,29.78,7.0,East,4.6,-,N/A,,Overcast,80,2012-09-05 15:27:00
11:55 AM,70.0,66.0,87,29.78,7.0,East,3.5,-,N/A,,Overcast,100,2012-09-05 15:55:00
12:22 PM,71.1,66.0,84,29.77,8.0,Calm,Calm,-,N/A,,Overcast,0,2012-09-05 16:22:00
12:32 PM,72.0,66.9,84,29.76,8.0,North,4.6,-,N/A,Thunderstorm,Mostly Cloudy,360,2012-09-05 16:32:00
12:55 PM,72.0,66.0,81,29.75,8.0,Calm,Calm,-,0.00,Rain-Thunderstorm,Light Rain,0,2012-09-05 16:55:00
1:05 PM,73.0,66.9,81,29.75,9.0,ENE,4.6,-,0.00,,Overcast,70,2012-09-05 17:05:00
1:19 PM,73.0,66.9,81,29.75,9.0,ESE,4.6,-,0.00,,Scattered Clouds,120,2012-09-05 17:19:00
1:55 PM,73.9,66.0,76,29.71,10.0,SSE,8.1,-,0.00,,Mostly Cloudy,150,2012-09-05 17:55:00
2:06 PM,75.0,66.0,73,29.72,10.0,SE,6.9,-,N/A,,Scattered Clouds,130,2012-09-05 18:06:00
2:21 PM,75.0,66.9,76,29.71,10.0,Variable,5.8,-,N/A,,Mostly Cloudy,0,2012-09-05 18:21:00
2:50 PM,77.0,66.2,69,29.69,10.0,SE,8.1,-,N/A,,Mostly Cloudy,130,2012-09-05 18:50:00
2:55 PM,75.9,66.0,71,29.68,10.0,Variable,4.6,-,N/A,,Mostly Cloudy,0,2012-09-05 18:55:00
3:55 PM,77.0,66.0,69,29.68,10.0,SSW,12.7,-,0.00,,Mostly Cloudy,200,2012-09-05 19:55:00
4:05 PM,78.1,64.9,64,29.68,10.0,South,10.4,-,N/A,,Mostly Cloudy,190,2012-09-05 20:05:00
4:55 PM,72.0,62.1,71,29.70,10.0,WNW,13.8,23.0,N/A,Thunderstorm,Thunderstorm,300,2012-09-05 20:55:00
5:02 PM,70.0,61.0,73,29.72,10.0,WNW,17.3,24.2,N/A,Thunderstorm,Thunderstorm,300,2012-09-05 21:02:00
5:20 PM,70.0,61.0,73,29.71,10.0,WNW,12.7,-,N/A,,Scattered Clouds,290,2012-09-05 21:20:00
5:53 PM,69.8,60.8,73,29.72,10.0,WNW,15.0,21.9,N/A,Thunderstorm,Thunderstorm,290,2012-09-05 21:53:00
5:55 PM,69.1,62.1,78,29.72,10.0,West,16.1,23.0,N/A,Thunderstorm,Thunderstorm,280,2012-09-05 21:55:00
6:01 PM,69.1,62.1,78,29.73,10.0,West,19.6,26.5,N/A,Thunderstorm,Thunderstorm,280,2012-09-05 22:01:00
6:15 PM,66.0,57.9,75,29.75,10.0,NW,19.6,28.8,N/A,Thunderstorm,Overcast,310,2012-09-05 22:15:00
6:27 PM,64.9,57.9,78,29.76,9.0,WNW,17.3,24.2,0.00,Rain,Light Rain,290,2012-09-05 22:27:00
6:46 PM,64.0,57.9,80,29.76,10.0,NW,18.4,28.8,0.00,,Overcast,320,2012-09-05 22:46:00
6:55 PM,64.0,57.9,80,29.74,10.0,NW,10.4,24.2,0.00,,Mostly Cloudy,310,2012-09-05 22:55:00
7:55 PM,64.0,57.0,78,29.74,10.0,NW,8.1,-,N/A,,Overcast,310,2012-09-05 23:55:00
8:55 PM,62.1,57.0,84,29.75,10.0,WNW,5.8,-,N/A,,Clear,290,2012-09-06 00:55:00
9:55 PM,59.0,55.9,90,29.77,10.0,West,3.5,-,N/A,,Clear,260,2012-09-06 01:55:00
10:37 PM,60.1,57.0,90,29.78,10.0,West,3.5,-,N/A,,Scattered Clouds,270,2012-09-06 02:37:00
10:55 PM,59.0,55.9,90,29.78,9.0,West,4.6,-,N/A,,Partly Cloudy,270,2012-09-06 02:55:00
11:55 PM,59.0,55.9,90,29.78,10.0,West,4.6,-,N/A,,Clear,280,2012-09-06 03:55:00